Home > Weather > Melk > Past weeks

Flag for Austria Past Weather in Melk, Lower Austria, Austria — Yesterday and Last 2 Weeks

Now
67 °F

Mild.


Feels Like: 67 °F
Forecast: 66 / 79 °F
Wind: No wind

Location: Amstetten

Current Time: Jul 25, 2016 at 2:29:41 AM

Latest Report: Jul 25, 2016 at 1:00 AM


Visibility: N/A

Pressure: 30.05 "Hg

Humidity: 96%

Dew Point: 66 °F

Location of MelkLocation

Past Weather in Melk — Graph

°F

Melk Temperature Yesterday

Maximum temperature yesterday: 83 °F (at 6:00 PM)
Minimum temperature yesterday: 67 °F (at 1:00 AM)
Average temperature yesterday: 73 °F

High & Low Weather Summary for the Past Weeks

 TemperatureHumidityPressure
High92 °F (Jul 11, 4:00 PM)100% (Jul 18, 6:00 AM)30.29 "Hg (Jul 18, 6:00 AM)
Low50 °F (Jul 15, 4:00 AM)36% (Jul 11, 5:00 PM)29.78 "Hg (Jul 12, 8:00 PM)
Average68 °F79%30.03 "Hg
* Reported Jul 10 1:00 AM — Jul 25 1:00 AM, Melk, Weather by CustomWeather, © 2016

Note: Actual official high and low records may vary slightly from our data, if they occured in-between our weather recording intervals... More about our weather records

Advertising

Melk Weather History for the Previous 24 Hours

Scroll right to see more
 ConditionsComfort  
Time TempWeatherWind HumidityBarometerVisibility
1:00 AM
Mon, Jul 25
67 °FMild.No wind96%30.05 "HgN/A
12:00 AM67 °FMild.1 mph96%30.05 "HgN/A
11:00 PM
Sun, Jul 24
68 °FMild.1 mph95%30.04 "HgN/A
10:00 PM71 °FMild.No wind90%30.03 "HgN/A
9:00 PM75 °FMild.1 mph79%30.01 "HgN/A
8:00 PM80 °FWarm.1 mph61%30.01 "HgN/A
7:00 PM83 °FWarm.1 mph52%29.99 "HgN/A
6:00 PM83 °FWarm.1 mph53%30.00 "HgN/A
5:00 PM82 °FWarm.2 mph55%30.01 "HgN/A
4:00 PM81 °FWarm.2 mph58%30.02 "HgN/A
3:00 PM79 °FWarm.2 mph61%30.05 "HgN/A
2:00 PM77 °FWarm.2 mph69%30.06 "HgN/A
1:00 PM76 °FMild.2 mph72%30.06 "HgN/A
12:00 PM74 °FMild.2 mph73%30.07 "HgN/A
11:00 AM73 °FMild.3 mph77%30.08 "HgN/A
10:00 AM71 °FMild.3 mph84%30.08 "HgN/A
9:00 AM70 °FMild.2 mph86%30.07 "HgN/A
8:00 AM68 °FMild.2 mph93%30.07 "HgN/A
7:00 AM67 °FMild.2 mph93%30.07 "HgN/A
6:00 AM67 °FMild.2 mph95%30.06 "HgN/A
5:00 AM67 °FMild.1 mph95%30.06 "HgN/A
4:00 AM67 °FMild.1 mph96%30.06 "HgN/A
3:00 AM67 °FMild.1 mph97%30.05 "HgN/A
2:00 AM67 °FMild.2 mph97%30.04 "HgN/A
Weather by CustomWeather, © 2016

See weather overviewHow to use our weather pages